Theta_e
336 336 335 335 335 333 335 336 334 334 335 336 336 335 334 335 336 335 333 336 340 341 343 344 345 348 349 350 350 348 349 346 346 345 344 345 346 346 344 341 340 339 337
336 335 335 335 338 337 336 336 332 332 332 334 334 335 335 335 335 334 332 337 339 340 342 342 343 345 348 349 349 347 346 344 344 345 345 346 345 344 342 340 338 336 335
337 337 338 336 338 333 336 335 334 334 333 332 332 333 334 335 333 334 335 337 339 340 341 342 341 343 348 349 349 348 345 344 345 344 344 342 343 342 341 338 336 335 334
339 338 337 336 335 335 337 334 334 330 329 330 331 331 332 333 333 334 336 337 341 342 341 341 343 342 345 346 349 345 345 343 342 342 341 342 342 340 339 336 335 334 333
338 337 336 333 335 335 332 333 332 330 328 329 329 330 330 330 333 333 336 338 339 341 342 342 341 341 343 340 347 344 342 342 340 341 341 341 340 339 337 336 334 333 332
337 336 334 331 333 330 329 329 331 330 329 329 328 329 330 331 333 336 335 336 339 339 344 344 344 345 343 339 343 343 341 339 338 338 339 338 338 338 337 335 332 331 331
337 336 333 329 328 329 331 330 329 327 328 331 327 327 329 331 331 334 336 336 337 340 344 345 344 345 344 342 340 340 339 339 339 339 338 337 337 337 334 334 332 331 330
336 335 331 329 328 328 329 329 328 325 327 330 324 323 319 323 329 332 337 338 338 341 341 342 344 346 344 338 338 340 340 340 338 337 336 336 336 334 334 333 331 330 329
334 334 332 330 330 329 328 328 327 325 322 325 329 325 318 314 321 331 333 333 335 337 339 340 343 343 339 337 338 340 339 337 338 335 335 335 335 334 333 332 332 330 329
333 333 332 331 331 330 328 327 326 325 326 324 327 331 330 329 318 319 331 332 335 335 336 339 339 337 341 340 337 336 335 334 333 331 332 331 335 334 332 332 331 331 329
332 330 331 331 330 329 329 328 327 327 331 329 328 326 329 331 331 327 318 327 333 336 336 337 337 336 335 337 335 333 331 331 333 334 335 336 335 334 331 332 331 330 329
330 330 330 330 330 330 329 328 329 329 330 332 332 330 330 327 326 329 322 325 324 330 336 334 336 334 333 332 332 331 330 329 329 330 329 334 335 335 332 332 331 330 330
327 329 330 329 330 331 331 331 331 330 330 330 331 331 330 333 334 333 328 327 323 327 328 333 332 333 331 331 332 332 331 328 327 326 327 330 332 329 332 333 332 331 330
327 330 329 330 331 331 331 332 332 330 331 333 332 331 331 330 333 334 328 326 323 325 327 325 331 331 331 332 331 331 331 326 325 323 322 325 326 326 328 330 331 331 330
327 328 329 330 330 331 332 332 333 332 331 331 332 331 331 334 336 339 339 337 331 320 322 324 325 331 332 331 331 331 331 325 325 323 323 322 321 322 325 326 326 327 327
328 328 328 330 331 331 333 333 332 331 331 332 332 333 332 335 333 337 333 331 332 325 319 325 326 329 330 331 331 330 330 327 324 323 323 322 321 321 322 322 323 324 324
328 327 328 328 329 331 333 332 331 329 329 331 333 328 329 334 332 334 335 330 330 326 321 324 327 328 327 328 328 328 331 329 327 321 322 320 318 318 319 320 320 320 320
327 327 329 328 329 330 332 331 328 327 326 327 328 327 328 331 332 334 335 333 333 327 324 321 324 325 325 327 326 328 327 327 328 321 320 318 316 316 316 316 318 314 313
328 329 330 329 329 330 331 331 330 328 328 328 330 328 329 329 331 333 333 333 332 327 327 324 322 324 324 325 325 326 325 326 325 323 318 316 315 315 314 313 312 312 309
329 331 331 330 330 330 330 330 329 328 328 329 329 330 331 329 332 331 329 331 333 327 327 322 322 321 321 323 323 320 319 324 321 322 316 316 315 312 312 313 313 310 306
330 331 331 330 331 330 328 329 329 328 329 328 331 331 332 328 323 323 331 326 330 327 323 321 319 319 318 319 319 324 323 322 323 323 321 322 322 319 314 310 310 309 305
331 331 330 329 330 328 306 313 324 328 330 331 330 331 331 324 318 314 314 316 324 326 322 321 320 318 320 325 325 323 322 319 316 326 320 314 316 312 311 311 305 304 303
331 331 330 330 330 329 303 305 311 329 329 330 332 331 329 328 327 329 313 313 313 312 317 327 328 326 326 327 327 326 324 322 321 323 318 312 314 310 312 309 304 302 301
330 330 330 331 331 327 301 303 309 328 328 328 332 332 331 332 329 329 328 328 327 327 329 333 335 334 334 332 331 328 327 326 325 323 323 311 313 311 311 308 302 301 300
329 328 328 330 330 325 301 302 317 325 326 328 330 332 332 330 305 309 327 328 329 325 308 304 305 307 307 309 318 324 320 322 320 321 325 316 314 311 310 308 305 301 300
328 325 327 331 320 325 300 301 318 329 327 328 326 325 311 321 300 307 331 329 326 325 326 326 326 315 315 313 309 330 326 323 322 316 320 315 313 310 306 310 307 307 307
Wind_Speed
8 8 8 7 7 6 6 6 5 4 5 6 7 8 9 9 7 5 5 9 11 13 13 12 12 13 18 19 22 23 24 23 21 21 22 20 19 19 19 18 16 15 15
8 8 8 9 8 5 6 5 5 4 4 5 6 8 8 7 6 7 6 6 9 12 12 10 10 11 16 20 21 24 24 21 20 21 20 21 20 19 19 17 16 15 16
10 11 8 8 7 5 7 6 5 4 4 5 7 7 7 6 6 7 7 6 5 9 11 8 8 10 17 20 24 29 27 25 22 22 20 21 18 17 19 18 17 17 16
11 11 9 7 5 5 6 5 5 5 5 5 6 5 6 6 6 6 6 6 5 4 5 5 6 7 10 11 25 31 28 25 22 21 19 19 18 17 18 18 18 17 17
10 9 6 3 6 5 4 5 4 5 5 6 5 6 5 5 5 4 5 5 5 4 3 0 4 3 9 12 21 28 29 26 24 22 21 19 19 18 18 18 18 17 17
7 7 4 4 5 4 4 5 7 5 5 5 4 5 5 4 4 3 4 4 5 4 2 1 5 5 14 18 20 28 28 27 25 25 19 20 18 19 18 19 18 17 16
5 5 5 4 4 5 5 6 5 6 5 4 4 3 3 4 4 3 3 3 4 3 2 2 4 4 5 27 30 34 31 28 27 25 20 17 18 19 18 17 16 15 15
3 5 5 5 5 4 5 6 7 6 5 5 4 4 4 4 3 3 2 2 3 3 1 4 5 6 9 9 20 32 32 30 29 25 20 17 16 17 17 16 16 15 12
3 5 6 4 4 4 4 5 7 8 6 5 6 2 4 4 6 3 5 3 3 3 2 5 7 12 11 9 16 21 30 30 28 26 22 19 19 19 16 15 13 13 11
3 4 5 5 4 3 4 5 6 5 6 5 4 4 2 3 4 4 3 3 4 3 4 6 8 9 15 12 17 19 29 27 26 26 23 21 20 19 16 14 12 11 9
4 5 5 5 4 4 4 5 6 6 5 5 6 5 4 2 3 4 4 5 3 4 4 7 7 9 9 11 11 17 26 24 21 20 18 18 19 18 15 13 12 10 9
3 4 5 4 4 3 5 6 6 7 5 3 4 5 4 1 4 3 5 5 4 2 5 6 9 8 9 13 21 22 19 21 17 14 14 16 17 16 12 13 11 10 8
4 5 5 4 4 4 5 5 6 6 5 4 4 4 4 2 0 1 6 6 2 1 2 6 9 12 13 12 16 22 22 16 12 11 11 12 14 18 13 8 10 9 7
5 5 5 4 4 4 4 4 5 4 3 3 5 4 3 3 3 4 5 7 5 3 2 6 7 14 13 12 16 21 14 14 12 13 12 10 14 13 11 9 7 6 4
5 5 4 4 4 4 2 4 3 4 4 4 3 4 2 3 2 4 7 7 7 4 3 4 5 13 12 14 15 10 10 13 13 12 11 11 9 8 6 8 6 6 4
5 5 4 3 3 3 3 4 3 3 3 3 2 3 3 2 5 5 4 5 5 6 4 4 11 11 13 11 13 11 9 11 14 11 7 8 8 9 8 6 6 4 2
5 4 3 4 4 5 4 4 4 3 3 3 3 4 5 7 5 6 5 5 7 8 9 6 9 12 16 13 11 9 8 7 5 6 7 7 8 7 7 6 4 3 0
5 4 4 5 5 5 5 5 5 5 4 5 6 7 8 6 9 8 6 9 8 10 11 13 10 11 13 12 11 10 6 6 6 6 7 7 6 7 6 5 5 5 4
6 5 5 5 6 6 6 5 6 6 4 5 7 7 8 8 9 8 8 10 9 9 10 10 7 10 7 8 9 7 7 5 5 7 5 6 4 7 7 8 7 6 6
7 6 6 6 6 6 6 6 8 6 6 7 7 7 9 9 10 10 8 11 12 11 11 9 10 10 8 5 5 7 6 6 6 6 8 7 5 8 6 8 9 11 11
7 7 7 7 6 5 5 7 8 7 7 8 7 8 7 9 11 8 7 9 12 11 10 11 10 10 7 6 7 5 7 7 6 5 6 5 7 8 10 12 13 12 11
7 7 7 7 7 5 7 7 7 7 7 8 9 9 11 12 10 13 13 11 9 13 12 10 11 11 10 10 7 8 8 8 6 5 9 9 9 9 9 10 10 10 8
6 6 6 6 6 7 6 8 4 7 6 6 9 9 9 8 11 13 13 14 13 14 8 10 13 11 13 11 10 10 9 7 8 9 11 9 7 9 8 8 7 8 10
6 6 6 6 5 5 6 7 5 6 6 5 9 10 10 10 11 12 13 11 10 8 7 6 8 10 10 12 11 8 9 10 10 7 8 8 7 8 9 8 9 11 11
7 4 5 7 7 6 5 9 8 5 7 7 8 11 11 11 9 11 11 11 10 7 7 9 10 9 7 9 8 9 9 9 7 6 2 8 8 8 6 6 8 9 6
7 5 5 6 8 8 5 5 5 7 8 8 8 5 6 10 9 7 7 6 8 7 8 7 8 9 8 8 6 3 8 7 7 6 6 4 9 8 5 4 4 3 4
Wind_Direction
239 246 247 250 247 245 246 255 252 266 265 244 232 221 216 223 234 253 251 249 261 266 266 268 263 247 216 204 196 181 174 173 152 148 147 145 142 139 138 134 135 134 129
239 251 246 246 244 226 238 237 234 258 256 237 223 217 216 224 236 248 246 256 262 264 267 264 267 251 224 210 199 179 161 148 149 146 141 143 145 142 135 137 137 140 129
240 244 247 246 248 215 231 222 228 234 240 230 224 214 221 227 243 249 249 257 263 233 256 243 275 267 231 216 194 166 151 155 155 146 149 149 137 138 136 140 143 141 144
241 245 243 245 243 231 222 223 219 233 233 225 218 217 216 224 241 241 247 258 246 253 235 234 262 277 218 226 202 155 151 147 147 145 132 139 136 140 136 147 148 148 147
240 239 244 226 215 224 228 235 213 227 229 229 216 211 213 227 238 243 259 237 227 210 214 147 226 206 182 133 215 142 143 137 137 138 142 144 146 143 145 148 147 148 134
228 225 226 223 206 218 215 220 223 210 226 228 222 215 218 223 225 230 248 214 216 210 197 218 224 196 176 144 158 146 143 144 141 143 154 148 151 148 150 148 146 142 135
211 213 215 201 193 215 213 218 234 225 221 206 193 189 199 205 187 210 204 204 211 202 236 226 226 218 170 159 148 145 152 153 150 150 151 151 149 152 143 144 145 143 139
202 212 202 196 195 202 203 208 215 220 223 198 198 171 174 167 160 181 166 174 187 235 268 173 208 170 148 155 154 154 156 158 152 147 147 137 144 144 147 146 144 139 137
206 209 189 180 172 204 212 210 212 214 197 191 211 189 167 180 160 142 138 129 195 168 155 162 148 121 115 127 144 158 140 139 145 139 132 151 147 145 147 148 139 136 145
128 175 170 173 190 194 196 188 193 204 214 196 198 237 252 140 174 159 128 183 187 119 159 134 120 120 130 125 131 145 129 131 138 136 148 160 152 142 144 140 140 142 147
126 138 166 172 171 192 180 179 186 208 213 205 207 188 212 202 202 145 159 171 99 133 146 126 123 126 129 131 133 110 118 126 129 139 160 147 143 143 141 147 146 155 170
119 158 143 151 159 172 181 186 194 201 217 235 202 208 199 212 183 158 129 146 119 96 153 134 122 127 129 122 120 122 116 123 140 147 160 147 142 132 145 156 160 172 183
170 143 134 153 158 179 176 174 184 187 206 226 209 202 204 229 63 157 140 137 118 87 109 132 128 114 113 119 131 124 127 132 141 157 127 125 136 141 163 175 171 181 192
148 130 132 135 143 159 180 183 168 161 173 199 198 192 205 243 282 156 141 141 127 91 50 124 120 128 131 126 127 124 130 145 146 123 122 117 119 139 174 174 165 184 192
137 129 130 136 170 175 179 152 126 140 193 209 186 163 179 220 147 155 159 153 145 124 107 122 114 115 127 123 129 125 123 108 111 111 120 129 134 155 182 153 173 177 199
140 137 139 160 158 141 131 113 112 133 174 175 176 141 137 153 134 134 116 133 84 89 75 39 108 116 120 109 114 111 123 119 114 133 166 142 156 171 165 167 178 187 219
140 149 156 169 164 131 121 114 102 117 150 148 117 120 150 162 137 133 121 113 110 113 112 104 118 112 107 110 109 107 112 112 125 134 146 153 166 159 156 175 174 189 270
144 154 162 156 151 126 116 115 105 122 133 125 109 109 122 135 135 127 123 114 120 123 113 123 122 111 107 113 115 119 125 126 131 145 142 150 151 150 151 137 123 106 93
140 149 153 147 133 118 111 97 96 86 102 114 118 123 126 122 136 136 128 123 116 113 116 119 105 115 111 122 117 108 104 104 106 113 125 109 116 117 123 124 130 106 89
139 140 138 133 123 117 109 115 109 103 98 100 101 113 126 134 130 131 122 126 121 116 112 111 121 118 119 100 105 133 127 134 125 137 74 77 115 90 98 101 102 89 83
130 132 136 132 124 120 121 124 110 107 107 106 108 104 111 103 99 106 120 122 124 119 120 122 121 122 127 147 152 153 143 136 119 122 116 105 113 105 103 85 91 87 80
137 132 136 137 133 115 123 114 122 121 113 117 115 107 113 111 101 95 88 86 124 130 125 126 136 144 151 161 153 163 152 155 131 140 111 101 105 101 95 89 67 75 81
143 143 134 135 134 126 145 129 127 125 115 123 118 121 112 113 128 117 99 99 91 77 85 146 145 154 164 167 158 167 165 160 122 134 122 108 112 102 107 89 56 84 91
147 127 126 131 128 119 133 135 142 114 110 119 125 126 125 134 128 132 120 122 114 125 135 129 139 154 157 159 165 157 137 112 114 134 137 123 132 118 115 101 74 83 84
141 138 116 128 133 126 145 149 151 127 124 135 123 126 131 119 117 114 122 128 127 117 77 69 75 89 106 138 141 142 150 150 132 142 161 128 157 139 145 126 106 102 103
138 141 125 130 124 128 156 157 181 140 139 123 105 98 116 124 117 111 122 132 137 136 138 130 112 99 125 121 140 184 164 163 137 141 155 137 162 157 168 146 121 82 114